Time,TemperatureF,DewpointF,PressureIn,WindDirection,WindDirectionDegrees,WindSpeedMPH,WindSpeedGustMPH,Humidity,HourlyPrecipIn,Conditions,Clouds,dailyrainin,SoftwareType,DateUTC
2013-04-07 07:45:00,54.4,50.9,30.12,SW,231,1.0,0.0,88,0.00,,,0.00,WeatherTracker,2013-04-07 14:45:00,
2013-04-07 07:46:00,54.4,50.9,30.12,SW,227,2.0,0.0,88,0.00,,,0.00,WeatherTracker,2013-04-07 14:46:00,
2013-04-07 07:52:00,54.4,50.9,30.11,WSW,243,5.0,0.0,88,0.00,,,0.00,WeatherTracker,2013-04-07 14:52:00,
2013-04-07 07:57:00,54.4,50.9,30.12,SW,229,4.0,0.0,88,0.00,,,0.00,WeatherTracker,2013-04-07 14:57:00,
2013-04-07 08:02:00,54.5,51.3,30.12,SSW,194,0.0,0.0,89,0.00,,,0.00,WeatherTracker,2013-04-07 15:02:00,
2013-04-07 08:07:00,54.6,51.1,30.11,WSW,238,2.0,0.0,88,0.00,,,0.00,WeatherTracker,2013-04-07 15:07:00,
2013-04-07 08:12:00,54.7,51.2,30.11,SSW,203,3.0,0.0,88,0.00,,,0.00,WeatherTracker,2013-04-07 15:12:00,
2013-04-07 08:17:00,54.9,51.4,30.11,SW,228,1.0,0.0,88,0.00,,,0.00,WeatherTracker,2013-04-07 15:17:00,
2013-04-07 08:22:00,55.1,51.6,30.11,WSW,245,1.0,0.0,88,0.00,,,0.00,WeatherTracker,2013-04-07 15:22:00,
2013-04-07 08:27:00,55.4,51.6,30.11,SW,214,1.0,0.0,87,0.00,,,0.00,WeatherTracker,2013-04-07 15:27:00,
2013-04-07 08:32:00,55.6,51.8,30.11,SSW,204,2.0,0.0,87,0.00,,,0.00,WeatherTracker,2013-04-07 15:32:00,
2013-04-07 08:37:00,55.7,51.9,30.11,SSW,206,0.0,0.0,87,0.00,,,0.00,WeatherTracker,2013-04-07 15:37:00,
2013-04-07 08:42:00,55.8,52.0,30.11,WSW,243,5.0,0.0,87,0.00,,,0.00,WeatherTracker,2013-04-07 15:42:00,
2013-04-07 08:47:00,56.0,51.9,30.10,SW,219,4.0,0.0,86,0.00,,,0.00,WeatherTracker,2013-04-07 15:47:00,
2013-04-07 08:52:00,56.1,52.0,30.11,South,181,5.0,0.0,86,0.00,,,0.00,WeatherTracker,2013-04-07 15:52:00,
2013-04-07 08:57:00,56.2,52.1,30.10,WSW,253,3.0,0.0,86,0.00,,,0.00,WeatherTracker,2013-04-07 15:57:00,
2013-04-07 09:02:00,56.2,52.1,30.10,SSW,205,6.0,0.0,86,0.00,,,0.00,WeatherTracker,2013-04-07 16:02:00,
2013-04-07 09:07:00,56.2,52.1,30.10,SSW,205,3.0,0.0,86,0.00,,,0.00,WeatherTracker,2013-04-07 16:07:00,
2013-04-07 09:12:00,56.2,52.1,30.09,WSW,246,10.0,0.0,86,0.00,,,0.00,WeatherTracker,2013-04-07 16:12:00,
2013-04-07 09:17:00,56.1,52.0,30.10,WSW,253,4.0,0.0,86,0.00,,,0.00,WeatherTracker,2013-04-07 16:17:00,
2013-04-07 09:22:00,56.1,52.3,30.10,WSW,240,4.0,0.0,87,0.00,,,0.00,WeatherTracker,2013-04-07 16:22:00,
2013-04-07 09:28:00,56.2,52.1,30.09,West,262,1.0,0.0,86,0.00,,,0.00,WeatherTracker,2013-04-07 16:28:00,
2013-04-07 09:33:00,56.4,52.3,30.09,South,190,4.0,0.0,86,0.00,,,0.00,WeatherTracker,2013-04-07 16:33:00,
2013-04-07 09:38:00,56.4,52.3,30.09,SW,214,9.0,0.0,86,0.00,,,0.00,WeatherTracker,2013-04-07 16:38:00,
2013-04-07 09:43:00,56.2,52.4,30.09,SW,233,8.0,0.0,87,0.00,,,0.00,WeatherTracker,2013-04-07 16:43:00,
2013-04-07 09:48:00,56.1,52.3,30.09,SSW,193,2.0,0.0,87,0.00,,,0.00,WeatherTracker,2013-04-07 16:48:00,
2013-04-07 09:53:00,56.1,52.6,30.10,SW,218,10.0,0.0,88,0.00,,,0.00,WeatherTracker,2013-04-07 16:53:00,
2013-04-07 09:58:00,56.1,52.6,30.10,SW,234,0.0,0.0,88,0.00,,,0.00,WeatherTracker,2013-04-07 16:58:00,